Weather History for Belmar-Farmingdale, NJ

Change the Weather History Date:

Sunday, March 20, 2011

  Actual Average Record
Temperature  
Mean Temperature 37 °F -  
Max Temperature 44 °F 47 °F 64 °F (2012)
Min Temperature 30 °F 32 °F 26 °F (2004)
Degree Days  
Heating Degree Days 28    
Moisture  
Dew Point 22 °F    
Average Humidity 55    
Maximum Humidity 75    
Minimum Humidity 37    
Precipitation  
Precipitation 0.00 in - - ()
Sea Level Pressure  
Sea Level Pressure 30.58 in    
Wind  
Wind Speed 7 mph (NE)    
Max Wind Speed 13 mph    
Max Gust Speed -    
Visibility 10 miles    
Events      
Averages and records for this station are not official NWS values.
T = Trace of Precipitation, MM = Missing Value Source: NWS Daily Summary

Daily Weather History Graph

Daily Weather History Graph

Search for Another Location

Airport:

Trip Planner

Search our weather history database for the weather conditions in past years. The results will help you decide how hot, cold, wet, or windy it might be!

Date:

Astronomy

Mar. 20, 2011 Rise Set
Actual Time 7:00 AM EDT 7:08 PM EDT
Civil Twilight 6:33 AM EDT 7:35 PM EDT
Nautical Twilight 6:01 AM EDT 8:07 PM EDT
Astronomical Twilight 5:29 AM EDT 8:39 PM EDT
Moon 8:44 PM EDT (3/20) 7:04 AM EDT (3/20)
Length of Visible Light 13h 02m
Length of Day
12h 07m
Full, 99% of the Moon is Illuminated
Mar 20
Full
Mar 26
Last Quarter
Apr 3
New
Apr 11
First Quarter
Apr 17
Full

Hourly Weather History & Observations

Time (EDT) Temp. Windchill Dew Point Humidity Pressure Visibility Wind Dir Wind Speed Gust Speed Precip Events Conditions
12:35 AM 37.4 °F 30.8 °F 21.2 °F 52% 30.49 in 10.0 mi NNW 9.2 mph - N/A   Clear
12:55 AM 35.6 °F 28.6 °F 21.2 °F 56% 30.49 in 10.0 mi NNW 9.2 mph - N/A   Clear
1:55 AM 35.6 °F 29.9 °F 21.2 °F 56% 30.51 in 10.0 mi NNW 6.9 mph - N/A   Clear
2:15 AM 35.6 °F 29.9 °F 21.2 °F 56% 30.52 in 10.0 mi NW 6.9 mph - N/A   Clear
2:35 AM 33.8 °F 27.7 °F 21.2 °F 60% 30.51 in 10.0 mi NNW 6.9 mph - N/A   Clear
2:55 AM 33.8 °F 29.6 °F 21.2 °F 60% 30.52 in 10.0 mi NNW 4.6 mph - N/A   Clear
3:15 AM 33.8 °F 28.6 °F 21.2 °F 60% 30.52 in 10.0 mi NW 5.8 mph - N/A   Clear
3:35 AM 33.8 °F 29.6 °F 21.2 °F 60% 30.53 in 10.0 mi NNW 4.6 mph - N/A   Clear
3:55 AM 32.0 °F 26.4 °F 21.2 °F 64% 30.53 in 10.0 mi NW 5.8 mph - N/A   Clear
4:15 AM 32.0 °F 27.5 °F 21.2 °F 64% 30.54 in 10.0 mi NW 4.6 mph - N/A   Clear
4:35 AM 32.0 °F 26.4 °F 21.2 °F 64% 30.54 in 10.0 mi NW 5.8 mph - N/A   Clear
4:55 AM 32.0 °F 26.4 °F 21.2 °F 64% 30.55 in 10.0 mi NW 5.8 mph - N/A   Clear
5:15 AM 30.2 °F 24.3 °F 21.2 °F 69% 30.56 in 10.0 mi NNW 5.8 mph - N/A   Clear
5:35 AM 30.2 °F 26.7 °F 21.2 °F 69% 30.56 in 10.0 mi NNW 3.5 mph - N/A   Clear
5:55 AM 30.2 °F 26.7 °F 21.2 °F 69% 30.57 in 10.0 mi NNW 3.5 mph - N/A   Clear
6:15 AM 30.2 °F 25.4 °F 21.2 °F 69% 30.58 in 10.0 mi NNW 4.6 mph - N/A   Clear
6:35 AM 30.2 °F 24.3 °F 21.2 °F 69% 30.58 in 10.0 mi North 5.8 mph - N/A   Clear
6:55 AM 30.2 °F - 21.2 °F 69% 30.60 in 10.0 mi Calm Calm - N/A   Clear
7:15 AM 30.2 °F 26.7 °F 21.2 °F 69% 30.61 in 10.0 mi NNW 3.5 mph - N/A   Clear
7:35 AM 30.2 °F 24.3 °F 21.2 °F 69% 30.62 in 10.0 mi North 5.8 mph - N/A   Clear
8:15 AM 35.6 °F 30.7 °F 23.0 °F 60% 30.62 in 10.0 mi NNE 5.8 mph - N/A   Clear
8:35 AM 37.4 °F 32.1 °F 24.8 °F 60% 30.62 in 10.0 mi NNE 6.9 mph - N/A   Clear
8:55 AM 37.4 °F 29.3 °F 24.8 °F 60% 30.62 in 10.0 mi NE 12.7 mph - N/A   Clear
9:15 AM 39.2 °F 32.5 °F 21.2 °F 49% 30.63 in 10.0 mi NE 10.4 mph - N/A   Clear
9:35 AM 39.2 °F 32.5 °F 21.2 °F 49% 30.63 in 10.0 mi NE 10.4 mph - N/A   Clear
9:55 AM 39.2 °F 33.0 °F 21.2 °F 49% 30.63 in 10.0 mi NE 9.2 mph - N/A   Clear
10:15 AM 39.2 °F 33.6 °F 19.4 °F 45% 30.63 in 10.0 mi ENE 8.1 mph - N/A   Clear
10:35 AM 41.0 °F 35.2 °F 19.4 °F 42% 30.63 in 10.0 mi NE 9.2 mph - N/A   Clear
10:55 AM 39.2 °F 34.2 °F 19.4 °F 45% 30.63 in 10.0 mi NNE 6.9 mph - N/A   Clear
11:15 AM 41.0 °F 38.0 °F 19.4 °F 42% 30.64 in 10.0 mi NNE 4.6 mph - N/A   Clear
11:35 AM 42.8 °F 40.1 °F 21.2 °F 42% 30.64 in 10.0 mi ENE 4.6 mph - N/A   Clear
11:55 AM 42.8 °F 39.3 °F 19.4 °F 39% 30.64 in 10.0 mi East 5.8 mph - N/A   Clear
12:15 PM 42.8 °F 37.5 °F 19.4 °F 39% 30.63 in 10.0 mi East 9.2 mph - N/A   Clear
12:35 PM 42.8 °F 40.1 °F 19.4 °F 39% 30.62 in 10.0 mi South 4.6 mph - N/A   Clear
12:55 PM 42.8 °F 38.0 °F 19.4 °F 39% 30.61 in 10.0 mi ENE 8.1 mph - N/A   Clear
1:15 PM 42.8 °F 38.6 °F 19.4 °F 39% 30.62 in 10.0 mi ESE 6.9 mph - N/A   Clear
1:35 PM 44.6 °F 40.2 °F 19.4 °F 37% 30.61 in 10.0 mi SE 8.1 mph - N/A   Clear
1:55 PM 42.8 °F 37.5 °F 19.4 °F 39% 30.60 in 10.0 mi SSE 9.2 mph - N/A   Clear
2:35 PM 42.8 °F 36.6 °F 21.2 °F 42% 30.58 in 10.0 mi SE 11.5 mph - N/A   Clear
2:55 PM 42.8 °F 37.0 °F 21.2 °F 42% 30.57 in 10.0 mi East 10.4 mph - N/A   Clear
3:35 PM 42.8 °F 37.0 °F 21.2 °F 42% 30.57 in 10.0 mi East 10.4 mph - N/A   Clear
4:15 PM 42.8 °F 37.0 °F 24.8 °F 49% 30.57 in 10.0 mi SE 10.4 mph - N/A   Clear
4:35 PM 42.8 °F 36.2 °F 24.8 °F 49% 30.56 in 10.0 mi ESE 12.7 mph - N/A   Clear
4:55 PM 42.8 °F 37.0 °F 24.8 °F 49% 30.57 in 10.0 mi SSE 10.4 mph - N/A   Clear
5:15 PM 42.8 °F 38.0 °F 26.6 °F 53% 30.57 in 10.0 mi SSE 8.1 mph - N/A   Clear
5:35 PM 42.8 °F 38.0 °F 26.6 °F 53% 30.57 in 10.0 mi South 8.1 mph - N/A   Clear
5:55 PM 42.8 °F 37.5 °F 26.6 °F 53% 30.56 in 10.0 mi South 9.2 mph - N/A   Clear
6:15 PM 41.0 °F 36.4 °F 28.4 °F 61% 30.56 in 10.0 mi South 6.9 mph - N/A   Clear
6:35 PM 39.2 °F 34.2 °F 28.4 °F 65% 30.56 in 10.0 mi SSE 6.9 mph - N/A   Clear
6:55 PM 39.2 °F 34.2 °F 28.4 °F 65% 30.56 in 10.0 mi SSE 6.9 mph - N/A   Clear
7:15 PM 39.2 °F 35.0 °F 28.4 °F 65% 30.56 in 10.0 mi South 5.8 mph - N/A   Clear
7:35 PM 37.4 °F 32.1 °F 28.4 °F 70% 30.56 in 10.0 mi South 6.9 mph - N/A   Clear
7:55 PM 37.4 °F 32.1 °F 28.4 °F 70% 30.54 in 10.0 mi SSE 6.9 mph - N/A   Clear
8:15 PM 37.4 °F 33.8 °F 30.2 °F 75% 30.55 in 10.0 mi SSE 4.6 mph - N/A   Clear
8:35 PM 37.4 °F 32.8 °F 30.2 °F 75% 30.54 in 10.0 mi South 5.8 mph - N/A   Clear
8:55 PM 37.4 °F 32.1 °F 30.2 °F 75% 30.54 in 10.0 mi South 6.9 mph - N/A   Clear
9:15 PM 37.4 °F 32.8 °F 32.0 °F 81% 30.55 in 10.0 mi South 5.8 mph - N/A   Clear
9:35 PM 37.4 °F 33.8 °F 30.2 °F 75% 30.55 in 10.0 mi South 4.6 mph - N/A   Clear
9:55 PM 37.4 °F 34.9 °F 32.0 °F 81% 30.55 in 10.0 mi SSW 3.5 mph - N/A   Clear
10:15 PM 37.4 °F 34.9 °F 32.0 °F 81% 30.54 in 10.0 mi South 3.5 mph - N/A   Clear
10:55 PM 35.6 °F 32.8 °F 32.0 °F 87% 30.52 in 10.0 mi SSE 3.5 mph - N/A   Clear
11:15 PM 37.4 °F 34.9 °F 33.8 °F 87% 30.52 in 10.0 mi South 3.5 mph - N/A   Clear
11:35 PM 37.4 °F - 33.8 °F 87% 30.51 in 10.0 mi Calm Calm - N/A   Clear
11:55 PM 37.4 °F 34.9 °F 33.8 °F 87% 30.51 in 10.0 mi South 3.5 mph - N/A   Clear